DAL1558 KDCA-KDTW

Flight info

Callsign DAL1558
Flight time 1h 5m
Altitude 34000
Route HORTO4 BUFFR Q178 KOZAR KLYNK3
Aircraft A320/M-SDE3FGHIRWY/LB1

Departure

Time 2026-04-23 04:20
Airport Ronald Reagan Washington National Airport (KDCA)

Arrival

Time 2026-04-23 05:26
Airport Detroit Metropolitan Wayne County Airport (KDTW)
Time Latitude Longitude Altitude Speed Heading
2026-04-23 03:50 38.84628 -77.04289 30 ft 0 kts 28°
2026-04-23 03:52 38.85229 -77.04202 24 ft 0 kts 162°
2026-04-23 04:10 38.85242 -77.04207 25 ft 4 kts 165°
2026-04-23 04:11 38.85269 -77.04215 27 ft 4 kts 163°
2026-04-23 04:11 38.85290 -77.04227 26 ft 2 kts 143°
2026-04-23 04:11 38.85289 -77.04210 25 ft 4 kts 81°
2026-04-23 04:11 38.85299 -77.04178 27 ft 4 kts 70°
2026-04-23 04:12 38.85306 -77.04148 24 ft 4 kts 72°
2026-04-23 04:12 38.85314 -77.04115 26 ft 4 kts 72°
2026-04-23 04:12 38.85322 -77.04082 24 ft 4 kts 72°
2026-04-23 04:12 38.85325 -77.04070 24 ft 0 kts 72°
2026-04-23 04:15 38.85328 -77.04061 24 ft 2 kts 72°
2026-04-23 04:15 38.85343 -77.04017 26 ft 8 kts 52°
2026-04-23 04:15 38.85522 -77.04021 24 ft 16 kts 346°
2026-04-23 04:16 38.85635 -77.04041 24 ft 16 kts 355°
2026-04-23 04:16 38.85734 -77.04051 27 ft 13 kts 355°
2026-04-23 04:16 38.85818 -77.04060 29 ft 12 kts 355°
2026-04-23 04:16 38.85902 -77.04061 27 ft 12 kts 15°
2026-04-23 04:17 38.85947 -77.03987 26 ft 10 kts 54°
2026-04-23 04:17 38.85997 -77.03958 24 ft 7 kts 15°
2026-04-23 04:17 38.86003 -77.03956 24 ft 0 kts 15°
2026-04-23 04:18 38.86015 -77.03952 24 ft 4 kts 15°
2026-04-23 04:19 38.86056 -77.03936 24 ft 7 kts 19°
2026-04-23 04:19 38.86088 -77.03894 23 ft 6 kts 82°
2026-04-23 04:19 38.86059 -77.03864 23 ft 5 kts 160°
2026-04-23 04:19 38.86014 -77.03862 24 ft 16 kts 175°
2026-04-23 04:20 38.85643 -77.03826 24 ft 91 kts 175°
2026-04-23 04:20 38.84786 -77.03741 39 ft 147 kts 176°
2026-04-23 04:20 38.83897 -77.03651 535 ft 143 kts 178°
2026-04-23 04:20 38.82880 -77.03575 995 ft 150 kts 181°
2026-04-23 04:21 38.81777 -77.03529 1311 ft 165 kts 185°
2026-04-23 04:21 38.80581 -77.03507 1656 ft 178 kts 186°
2026-04-23 04:21 38.79286 -77.03499 1957 ft 194 kts 186°
2026-04-23 04:21 38.77861 -77.03506 2190 ft 217 kts 186°
2026-04-23 04:22 38.76803 -77.03543 2398 ft 231 kts 189°
2026-04-23 04:22 38.75272 -77.04183 2874 ft 236 kts 221°
2026-04-23 04:22 38.74249 -77.05822 3493 ft 236 kts 254°
2026-04-23 04:22 38.73993 -77.07910 4165 ft 244 kts 270°
2026-04-23 04:23 38.74022 -77.10141 4840 ft 254 kts 274°
2026-04-23 04:23 38.74108 -77.12420 5669 ft 259 kts 274°
2026-04-23 04:23 38.74153 -77.14744 6501 ft 263 kts 272°
2026-04-23 04:23 38.74143 -77.17101 7358 ft 265 kts 271°
2026-04-23 04:24 38.74084 -77.19458 8253 ft 265 kts 271°
2026-04-23 04:24 38.74067 -77.21828 9027 ft 267 kts 281°
2026-04-23 04:24 38.74640 -77.24074 9794 ft 266 kts 302°
2026-04-23 04:24 38.75840 -77.25885 10395 ft 274 kts 322°
2026-04-23 04:25 38.77588 -77.27046 10672 ft 295 kts 339°
2026-04-23 04:25 38.79591 -77.27963 11013 ft 312 kts 339°
2026-04-23 04:25 38.81649 -77.28949 11610 ft 319 kts 338°
2026-04-23 04:25 38.83740 -77.29979 12307 ft 323 kts 338°
2026-04-23 04:26 38.85842 -77.31051 13045 ft 327 kts 336°
2026-04-23 04:26 38.87941 -77.32232 13751 ft 331 kts 335°
2026-04-23 04:26 38.90062 -77.33493 14407 ft 334 kts 334°
2026-04-23 04:26 38.92164 -77.34762 15038 ft 337 kts 334°
2026-04-23 04:27 38.94293 -77.36043 15661 ft 340 kts 334°
2026-04-23 04:27 38.96477 -77.37348 16299 ft 343 kts 334°
2026-04-23 04:27 38.98652 -77.38639 16884 ft 346 kts 335°
2026-04-23 04:28 39.03075 -77.41242 18099 ft 353 kts 335°
2026-04-23 04:28 39.05319 -77.42559 18657 ft 356 kts 335°
2026-04-23 04:28 39.07582 -77.43893 19186 ft 359 kts 335°
2026-04-23 04:28 39.09858 -77.45238 19721 ft 361 kts 335°
2026-04-23 04:29 39.12173 -77.46519 20252 ft 364 kts 340°
2026-04-23 04:29 39.14606 -77.47483 20820 ft 366 kts 342°
2026-04-23 04:29 39.17051 -77.48435 21373 ft 368 kts 342°
2026-04-23 04:29 39.19508 -77.49395 21938 ft 370 kts 341°
2026-04-23 04:30 39.22016 -77.50381 22458 ft 373 kts 341°
2026-04-23 04:30 39.24506 -77.51361 22975 ft 375 kts 341°
2026-04-23 04:30 39.27010 -77.52347 23479 ft 378 kts 341°
2026-04-23 04:30 39.29528 -77.53339 23912 ft 380 kts 341°
2026-04-23 04:31 39.32061 -77.54341 24331 ft 382 kts 341°
2026-04-23 04:31 39.34581 -77.55339 24743 ft 383 kts 341°
2026-04-23 04:31 39.37134 -77.56346 25153 ft 384 kts 341°
2026-04-23 04:31 39.39690 -77.57355 25563 ft 385 kts 341°
2026-04-23 04:32 39.42190 -77.58605 25949 ft 385 kts 332°
2026-04-23 04:32 39.44431 -77.60504 26309 ft 387 kts 321°
2026-04-23 04:32 39.46318 -77.63001 26657 ft 390 kts 309°
2026-04-23 04:32 39.47778 -77.66035 27024 ft 396 kts 298°
2026-04-23 04:33 39.48803 -77.69307 27364 ft 399 kts 295°
2026-04-23 04:33 39.49823 -77.72707 27719 ft 401 kts 295°
2026-04-23 04:33 39.50837 -77.76083 28060 ft 403 kts 295°
2026-04-23 04:33 39.51852 -77.79468 28401 ft 405 kts 295°
2026-04-23 04:34 39.52871 -77.82875 28719 ft 406 kts 295°
2026-04-23 04:34 39.53895 -77.86298 29031 ft 408 kts 295°
2026-04-23 04:34 39.54923 -77.89684 29330 ft 410 kts 295°
2026-04-23 04:34 39.55981 -77.93115 29624 ft 411 kts 296°
2026-04-23 04:35 39.57048 -77.96566 29895 ft 413 kts 296°
2026-04-23 04:35 39.58121 -78.00035 30169 ft 415 kts 296°
2026-04-23 04:35 39.59195 -78.03518 30398 ft 417 kts 296°
2026-04-23 04:35 39.60283 -78.07060 30628 ft 418 kts 296°
2026-04-23 04:36 39.61357 -78.10569 30848 ft 419 kts 296°
2026-04-23 04:36 39.62432 -78.14096 31064 ft 421 kts 295°
2026-04-23 04:36 39.63494 -78.17588 31329 ft 420 kts 295°
2026-04-23 04:36 39.64562 -78.21111 31634 ft 419 kts 295°
2026-04-23 04:37 39.65629 -78.24636 31970 ft 419 kts 296°
2026-04-23 04:37 39.66690 -78.28137 32314 ft 416 kts 296°
2026-04-23 04:37 39.67749 -78.31632 32646 ft 414 kts 296°
2026-04-23 04:37 39.68800 -78.35106 32951 ft 413 kts 296°
2026-04-23 04:38 39.69849 -78.38580 33254 ft 412 kts 296°
2026-04-23 04:38 39.70898 -78.42049 33550 ft 411 kts 296°
2026-04-23 04:38 39.71941 -78.45509 33857 ft 410 kts 296°
2026-04-23 04:38 39.72980 -78.48957 34037 ft 411 kts 296°
2026-04-23 04:39 39.75087 -78.55964 34062 ft 420 kts 296°
2026-04-23 04:39 39.77225 -78.63094 34063 ft 426 kts 295°
2026-04-23 04:40 39.79380 -78.70300 34053 ft 428 kts 295°
2026-04-23 04:40 39.81534 -78.77528 34093 ft 428 kts 295°
2026-04-23 04:41 39.83684 -78.84755 34172 ft 428 kts 295°
2026-04-23 04:41 39.84757 -78.88374 34292 ft 428 kts 295°
2026-04-23 04:41 39.85806 -78.91925 34541 ft 424 kts 295°
2026-04-23 04:42 39.86861 -78.95502 34749 ft 421 kts 295°
2026-04-23 04:42 39.87913 -78.99065 34934 ft 420 kts 295°
2026-04-23 04:42 39.88958 -79.02615 35092 ft 420 kts 295°
2026-04-23 04:42 39.90004 -79.06171 35213 ft 419 kts 295°
2026-04-23 04:43 39.91047 -79.09716 35343 ft 419 kts 295°
2026-04-23 04:43 39.92091 -79.13262 35485 ft 419 kts 295°
2026-04-23 04:43 39.93133 -79.16807 35627 ft 419 kts 295°
2026-04-23 04:43 39.94173 -79.20351 35764 ft 418 kts 295°
2026-04-23 04:44 39.95213 -79.23889 35901 ft 418 kts 295°
2026-04-23 04:44 39.96251 -79.27427 36059 ft 417 kts 295°
2026-04-23 04:44 39.98309 -79.34489 36097 ft 421 kts 295°
2026-04-23 04:45 40.00498 -79.41566 36100 ft 418 kts 302°
2026-04-23 04:45 40.03645 -79.47916 36110 ft 417 kts 307°
2026-04-23 04:46 40.06884 -79.54204 36109 ft 417 kts 307°
2026-04-23 04:46 40.10117 -79.60502 36086 ft 417 kts 307°
2026-04-23 04:47 40.13346 -79.66805 36088 ft 418 kts 307°
2026-04-23 04:47 40.16575 -79.73123 36076 ft 418 kts 307°
2026-04-23 04:48 40.19797 -79.79454 36079 ft 418 kts 307°
2026-04-23 04:48 40.23021 -79.85800 36059 ft 418 kts 307°
2026-04-23 04:49 40.26264 -79.92190 36070 ft 419 kts 307°
2026-04-23 04:49 40.29487 -79.98553 36077 ft 419 kts 307°
2026-04-23 04:50 40.32700 -80.04925 36082 ft 419 kts 306°
2026-04-23 04:50 40.35912 -80.11298 36084 ft 419 kts 307°
2026-04-23 04:51 40.39110 -80.17639 36082 ft 419 kts 306°
2026-04-23 04:51 40.42318 -80.24038 36091 ft 418 kts 306°
2026-04-23 04:52 40.45525 -80.30430 36094 ft 418 kts 306°
2026-04-23 04:52 40.48721 -80.36802 36095 ft 418 kts 306°
2026-04-23 04:53 40.51889 -80.43149 36109 ft 418 kts 306°
2026-04-23 04:53 40.55074 -80.49539 36104 ft 417 kts 306°
2026-04-23 04:54 40.58249 -80.55928 36084 ft 417 kts 306°
2026-04-23 04:54 40.60672 -80.61429 36085 ft 419 kts 301°
2026-04-23 04:55 40.63334 -80.68268 36088 ft 419 kts 301°
2026-04-23 04:55 40.65989 -80.75105 36090 ft 419 kts 301°
2026-04-23 04:56 40.68644 -80.81950 36098 ft 419 kts 301°
2026-04-23 04:56 40.71294 -80.88799 36094 ft 419 kts 301°
2026-04-23 04:57 40.73940 -80.95649 36085 ft 419 kts 301°
2026-04-23 04:57 40.76591 -81.02520 36093 ft 420 kts 301°
2026-04-23 04:58 40.79234 -81.09385 36108 ft 420 kts 301°
2026-04-23 04:58 40.81866 -81.16256 36112 ft 419 kts 301°
2026-04-23 04:59 40.84492 -81.23126 36112 ft 419 kts 301°
2026-04-23 04:59 40.87101 -81.29944 36090 ft 418 kts 301°
2026-04-23 05:00 40.89722 -81.36814 36092 ft 418 kts 301°
2026-04-23 05:00 40.92338 -81.43689 36098 ft 418 kts 300°
2026-04-23 05:01 40.94949 -81.50573 36091 ft 418 kts 300°
2026-04-23 05:01 40.96251 -81.54018 35631 ft 415 kts 300°
2026-04-23 05:01 40.97538 -81.57427 35388 ft 414 kts 300°
2026-04-23 05:02 40.98808 -81.60795 35143 ft 414 kts 300°
2026-04-23 05:02 41.00113 -81.64254 34898 ft 415 kts 300°
2026-04-23 05:02 41.01403 -81.67678 34644 ft 416 kts 300°
2026-04-23 05:02 41.02694 -81.71107 34406 ft 416 kts 300°
2026-04-23 05:03 41.03987 -81.74542 34173 ft 417 kts 300°
2026-04-23 05:03 41.05281 -81.77991 33912 ft 418 kts 300°
2026-04-23 05:03 41.06572 -81.81441 33615 ft 418 kts 300°
2026-04-23 05:03 41.07865 -81.84902 33084 ft 419 kts 300°
2026-04-23 05:04 41.09159 -81.88372 32545 ft 421 kts 300°
2026-04-23 05:04 41.10459 -81.91862 32005 ft 423 kts 300°
2026-04-23 05:04 41.11768 -81.95368 31478 ft 425 kts 300°
2026-04-23 05:04 41.13070 -81.98854 30917 ft 428 kts 300°
2026-04-23 05:05 41.14393 -82.02402 30387 ft 430 kts 299°
2026-04-23 05:05 41.15723 -82.05971 29800 ft 433 kts 299°
2026-04-23 05:05 41.17059 -82.09574 29258 ft 436 kts 299°
2026-04-23 05:05 41.18399 -82.13193 28708 ft 438 kts 299°
2026-04-23 05:06 41.19744 -82.16831 28179 ft 440 kts 299°
2026-04-23 05:06 41.21099 -82.20495 27634 ft 443 kts 299°
2026-04-23 05:06 41.22698 -82.23972 27108 ft 441 kts 310°
2026-04-23 05:06 41.24826 -82.26890 26517 ft 441 kts 321°
2026-04-23 05:07 41.27241 -82.29435 25912 ft 444 kts 322°
2026-04-23 05:07 41.29680 -82.31980 25306 ft 447 kts 322°
2026-04-23 05:07 41.32138 -82.34543 24697 ft 450 kts 322°
2026-04-23 05:07 41.34604 -82.37117 24079 ft 452 kts 322°
2026-04-23 05:08 41.37085 -82.39714 23420 ft 456 kts 322°
2026-04-23 05:08 41.39580 -82.42333 22769 ft 456 kts 322°
2026-04-23 05:08 41.42062 -82.44947 22157 ft 453 kts 322°
2026-04-23 05:08 41.44495 -82.47518 21709 ft 437 kts 322°
2026-04-23 05:09 41.46851 -82.50009 21128 ft 427 kts 322°
2026-04-23 05:09 41.49165 -82.52456 20385 ft 422 kts 322°
2026-04-23 05:09 41.51449 -82.54872 19866 ft 414 kts 322°
2026-04-23 05:09 41.53692 -82.57245 19369 ft 406 kts 322°
2026-04-23 05:10 41.55903 -82.59584 18686 ft 404 kts 322°
2026-04-23 05:10 41.58095 -82.61903 18081 ft 400 kts 322°
2026-04-23 05:10 41.60269 -82.64205 17473 ft 397 kts 322°
2026-04-23 05:10 41.62421 -82.66486 17012 ft 390 kts 322°
2026-04-23 05:11 41.64533 -82.68725 16457 ft 387 kts 321°
2026-04-23 05:11 41.66620 -82.70940 15975 ft 381 kts 321°
2026-04-23 05:11 41.68698 -82.73150 15367 ft 380 kts 321°
2026-04-23 05:11 41.70728 -82.75314 14870 ft 376 kts 321°
2026-04-23 05:12 41.72766 -82.77488 14354 ft 373 kts 321°
2026-04-23 05:12 41.74765 -82.79672 13847 ft 369 kts 317°
2026-04-23 05:12 41.76520 -82.82158 13311 ft 366 kts 313°
2026-04-23 05:12 41.78233 -82.84660 12812 ft 362 kts 313°
2026-04-23 05:13 41.79929 -82.87139 12322 ft 358 kts 313°
2026-04-23 05:13 41.81599 -82.89581 11836 ft 353 kts 313°
2026-04-23 05:13 41.83249 -82.91998 11360 ft 348 kts 313°
2026-04-23 05:14 41.86477 -82.96758 10417 ft 342 kts 310°
2026-04-23 05:14 41.87671 -82.99495 9946 ft 341 kts 291°
2026-04-23 05:14 41.88119 -83.02598 9520 ft 337 kts 275°
2026-04-23 05:14 41.88244 -83.05622 9372 ft 310 kts 275°
2026-04-23 05:15 41.88367 -83.08416 9043 ft 293 kts 275°
2026-04-23 05:15 41.88493 -83.11126 8479 ft 287 kts 275°
2026-04-23 05:15 41.88622 -83.13784 8035 ft 284 kts 276°
2026-04-23 05:15 41.88748 -83.16385 7610 ft 283 kts 275°
2026-04-23 05:16 41.88874 -83.19024 7232 ft 281 kts 275°
2026-04-23 05:16 41.88998 -83.21637 6850 ft 280 kts 275°
2026-04-23 05:16 41.89117 -83.24229 6478 ft 277 kts 275°
2026-04-23 05:16 41.89228 -83.26760 6348 ft 264 kts 275°
2026-04-23 05:17 41.89330 -83.29160 6253 ft 251 kts 275°
2026-04-23 05:17 41.89429 -83.31445 6141 ft 239 kts 275°
2026-04-23 05:17 41.89526 -83.33630 6040 ft 232 kts 275°
2026-04-23 05:17 41.89632 -83.35784 5922 ft 231 kts 276°
2026-04-23 05:18 41.89900 -83.37886 5795 ft 227 kts 292°
2026-04-23 05:18 41.90654 -83.39739 5663 ft 226 kts 304°
2026-04-23 05:18 41.91575 -83.41488 5548 ft 227 kts 307°
2026-04-23 05:18 41.92515 -83.43143 5417 ft 223 kts 308°
2026-04-23 05:19 41.93451 -83.44748 5289 ft 213 kts 308°
2026-04-23 05:19 41.94362 -83.46296 5161 ft 204 kts 308°
2026-04-23 05:19 41.95231 -83.47773 5150 ft 200 kts 308°
2026-04-23 05:19 41.96084 -83.49223 5152 ft 201 kts 308°
2026-04-23 05:20 41.96948 -83.50697 5150 ft 200 kts 308°
2026-04-23 05:20 41.97896 -83.52073 5147 ft 201 kts 325°
2026-04-23 05:20 41.99173 -83.52808 5113 ft 202 kts 351°
2026-04-23 05:20 42.00574 -83.52702 5011 ft 206 kts 18°
2026-04-23 05:21 42.01876 -83.51871 4721 ft 207 kts 27°
2026-04-23 05:21 42.03126 -83.50941 4459 ft 203 kts 27°
2026-04-23 05:21 42.04354 -83.50035 4162 ft 199 kts 27°
2026-04-23 05:21 42.05542 -83.49164 3899 ft 195 kts 27°
2026-04-23 05:22 42.06725 -83.48296 3635 ft 191 kts 27°
2026-04-23 05:22 42.07881 -83.47445 3394 ft 188 kts 28°
2026-04-23 05:22 42.09020 -83.46609 3132 ft 185 kts 28°
2026-04-23 05:22 42.10133 -83.45802 2906 ft 175 kts 28°
2026-04-23 05:23 42.11163 -83.45044 2699 ft 164 kts 29°
2026-04-23 05:23 42.12151 -83.44316 2476 ft 161 kts 30°
2026-04-23 05:23 42.13128 -83.43616 2264 ft 157 kts 31°
2026-04-23 05:23 42.14079 -83.42916 2091 ft 154 kts 32°
2026-04-23 05:24 42.15017 -83.42217 1887 ft 153 kts 31°
2026-04-23 05:24 42.15951 -83.41541 1651 ft 151 kts 32°
2026-04-23 05:24 42.16871 -83.40863 1449 ft 150 kts 32°
2026-04-23 05:24 42.17780 -83.40190 1254 ft 147 kts 30°
2026-04-23 05:25 42.18672 -83.39534 1062 ft 146 kts 30°
2026-04-23 05:25 42.19549 -83.38885 840 ft 145 kts 28°
2026-04-23 05:25 42.20433 -83.38238 660 ft 143 kts 29°
2026-04-23 05:25 42.21222 -83.37661 648 ft 106 kts 28°
2026-04-23 05:26 42.21688 -83.37318 644 ft 36 kts 28°
2026-04-23 05:26 42.21817 -83.37089 646 ft 29 kts 72°
2026-04-23 05:26 42.21924 -83.36889 648 ft 25 kts 37°
2026-04-23 05:26 42.22025 -83.36774 649 ft 12 kts 85°
2026-04-23 05:27 42.21994 -83.36660 647 ft 13 kts 122°
2026-04-23 05:27 42.21946 -83.36555 647 ft 14 kts 117°
2026-04-23 05:27 42.21900 -83.36441 647 ft 14 kts 118°
2026-04-23 05:27 42.21851 -83.36320 647 ft 15 kts 118°
2026-04-23 05:28 42.21810 -83.36180 647 ft 17 kts 94°
2026-04-23 05:28 42.21811 -83.36011 646 ft 19 kts 89°
2026-04-23 05:28 42.21815 -83.35820 645 ft 20 kts 88°
2026-04-23 05:28 42.21765 -83.35734 644 ft 13 kts 213°
2026-04-23 05:29 42.21679 -83.35790 645 ft 16 kts 207°
2026-04-23 05:29 42.21584 -83.35859 648 ft 14 kts 210°
2026-04-23 05:29 42.21499 -83.35920 649 ft 16 kts 207°
2026-04-23 05:29 42.21381 -83.36002 648 ft 21 kts 208°
2026-04-23 05:30 42.21244 -83.36102 647 ft 23 kts 208°
2026-04-23 05:30 42.21098 -83.36211 647 ft 25 kts 209°
2026-04-23 05:30 42.20942 -83.36327 647 ft 26 kts 209°
2026-04-23 05:30 42.20776 -83.36450 648 ft 28 kts 208°
2026-04-23 05:31 42.20617 -83.36567 648 ft 20 kts 208°
2026-04-23 05:31 42.20559 -83.36565 647 ft 7 kts 137°
2026-04-23 05:31 42.20534 -83.36484 647 ft 12 kts 110°
2026-04-23 05:31 42.20512 -83.36372 649 ft 13 kts 95°
2026-04-23 05:32 42.20526 -83.36250 647 ft 14 kts 66°
2026-04-23 05:32 42.20586 -83.36177 647 ft 12 kts 28°
2026-04-23 05:32 42.20637 -83.36140 647 ft 6 kts 28°
2026-04-23 05:32 42.20658 -83.36125 647 ft 2 kts 28°
2026-04-23 05:33 42.20678 -83.36107 647 ft 3 kts 36°
2026-04-23 05:33 42.20682 -83.36091 647 ft 2 kts 81°
2026-04-23 05:33 42.20676 -83.36071 647 ft 3 kts 119°
2026-04-23 05:33 42.20666 -83.36050 649 ft 2 kts 121°
2026-04-23 05:34 42.20655 -83.36024 647 ft 3 kts 119°
2026-04-23 05:34 42.20647 -83.36006 647 ft 0 kts 119°